星链-34567 (STARLINK-34567)

导读

STARLINK-34567是美国SpaceX公司星链星座的一员,于2025年7月16日发射入轨,属于低轨互联网通信卫星。星链是全球规模最大的商用低轨卫星星座,依托相控阵通信、激光星间链路等技术,为全球尤其是偏远地区提供高速低延迟宽带服务,累计发射卫星已超9400颗。该卫星入轨将进一步扩充星链网络容量,提升全球网络覆盖与服务稳定性。

Basic Information
目录编号:
64795
目录名称:
STARLINK-34567
国际标识:
2025-150F
轨道中心:
EARTH
卫星名称:
星链-34567
卫星全名:
星链-34567 (STARLINK-34567)
卫星状态:
在轨 (已飞行415 天)
发射日期:
2025-07-16 UTC
国别 :
美国 (US)
星等 :
--
Orbit Information
数据来源 国际轨道数据 AOE轨道数据
星历时间 2026-09-04T18:11:05+0800
13小时前
查看轨道信息
2026-09-02T16:00:00+0800
2天前
查看轨道信息
半长轴 6950.182km 6950.187km
偏心率 0.0002509 0.0002655
轨道倾角 70.001° 70.002°
近地点辐角 265.930° 275.135°
升交点赤经 43.635° 48.909°
平近点角 94.157° 329.182°
近地点 570.301km 570.204km
远地点 573.789km 573.896km
周期 96.107分钟 96.107分钟
每日圈数 14.983337 14.983322
Detailed Information
固有亮度:
5
最大亮度:
2.5
卫星平台:
Starlink V1.0
覆盖范围:
全球
运营商:
太空探索技术公司
运营商所在国:
美国
制造商(研发单位):
太空探索技术公司
制造商所在国:
美国
使用方式:
暂无
Satellite Introduction
Starlink 计划是 SpaceX 推出的全球卫星互联网项目,通过发射低轨道卫星,为全球尤其是偏远地区提供高速、低延迟的互联网服务。自 2019 年起,Starlink 已部署数千颗卫星,旨在缩小全球数字鸿沟,推动互联网普及。该项目还为军事、航空等行业提供通信支持,带来广泛经济效益。
2D Orbit Map
3D Orbit Map
Orbit Altitude Analysis Chart
Orbit Inclination Analysis Chart
Orbit Comprehensive Analysis Chart
View Comprehensive Chart
Conjunction Data List
Event ID Objects TCA Miss Dist (km) Collision Risk Probability Collision Risk Index (CRI) Action
CDM_260907-084404-283106-479521
2026-09-07T
08:44:44+0000
1.104 km
极远距离
7.356323E-6 低风险 0.52
CDM_260903-152106-479508-902922
2026-09-03T
15:21:25+0000
2.337 km
极远距离
1.820345E-6 低风险 0.4